Regional Weather Roundup
Issued by NWS

Home | Current Version | Previous Version | Graphics & Text | Print | Product List | Glossary On
Versions: 1 2 3 4 5 6 7 8 9 10 11 12 13 14 15 16 17 18 19 20 21 22 23 24 25 26 27 28 29 30 31 32 33 34 35 36 37 38 39 40 41 42 43 44 45 46 47 48 49 50
299
ASUS45 KSLC 181710
RWRUT

UTAH REGIONAL WEATHER ROUNDUP
NATIONAL WEATHER SERVICE SALT LAKE CITY UT
1100 AM MDT FRI AUG 18 2017

UTZ001>011-023>025-181800-

NORTHERN UTAH

CITY           SKY/WX    TMP DP  RH WIND       PRES   REMARKS
BRIGHAM CITY   SUNNY     77  35  21 W3        30.19S
HILL AFB       SUNNY     78  40  25 E7        30.21R
LOGAN          SUNNY     72  41  32 VRB3      30.20S
OGDEN          SUNNY     79  39  23 VRB3      30.18S
SALT LAKE CITY SUNNY     84  40  21 N5        30.16S
TOOELE VALLEY  SUNNY     79  46  31 N6        30.18S
WENDOVER       SUNNY     80  39  23 VRB3      30.18S
HEBER CITY     SUNNY     68  39  34 CALM      30.26F
WEST JORDAN    SUNNY     80  53  38 SE9       30.20S

$$

UTZ011>015-024>027-181800-

CENTRAL/NORTHEAST UTAH

CITY           SKY/WX    TMP DP  RH WIND       PRES   REMARKS
PROVO AIRPORT  SUNNY     78  43  28 S5        30.20F
MOAB/CANYONLAN SUNNY     85  36  17 VRB5      30.17S
DELTA          SUNNY     77  36  22 SW6       30.21S
PRICE          SUNNY     81  33  17 S5        30.26F
ROOSEVELT      SUNNY     79  39  24 E7        30.26F
VERNAL         SUNNY     77  42  28 VRB7      30.25S

$$

UTZ013>016-019>022-027-181800-

SOUTHERN UTAH

CITY           SKY/WX    TMP DP  RH WIND       PRES   REMARKS
BRYCE CANYON   MOSUNNY   75  36  24 CALM      30.42S
CEDAR CITY     MOSUNNY   81  35  19 W3        30.26R
MILFORD        SUNNY     83  38  20 SW9       30.21F
ST GEORGE      SUNNY     82  45  27 SW6       30.09F
HANKSVILLE     SUNNY     82  32  16 CALM      30.20S
BLANDING       SUNNY     76  33  20 S5        30.36S

$$

REGIONAL REPORTS     COLORADO/ARIZONA

CITY           SKY/WX    TMP DP  RH WIND       PRES   REMARKS
CRAIG, CO      SUNNY     75  36  24 NW3       30.31F
GRAND JUNCTION SUNNY     80  37  21 SE9       30.21F
RIFLE, CO      SUNNY     73  40  30 CALM      30.26F
MONTROSE, CO   SUNNY     77  40  26 N5        30.28F
CORTEZ, CO     SUNNY     80  35  19 S6        30.29F
COLORADO CITY    N/A     82  43  24 CALM      30.24S
PAGE, AZ       SUNNY     84  38  19 NE5       30.16S
GRAND CANYON   SUNNY     78  33  19 SW8       30.35S
KINGMAN, AZ    SUNNY     91  38  15 CALM      30.13R
FLAGSTAFF, AZ  SUNNY     74  37  26 VRB3      30.38F

$$

REGIONAL REPORTS    NEVADA/IDAHO/WYOMING

CITY           SKY/WX    TMP DP  RH WIND       PRES   REMARKS
LAS VEGAS, NV  MOSUNNY   92  42  17 CALM      30.02R
ELY, NY        SUNNY     76  29  17 CALM      30.30F
ELKO, NV       SUNNY     73  33  23 VRB3      30.25F
POCATELLO, ID  SUNNY     77  37  23 W10       30.20S
BURLEY, ID     SUNNY     74  42  31 W9        30.16S
FORT BRIDGER,    N/A     77  31  18 W7        30.36F
EVANSTON, WY   SUNNY     74  34  23 SW8       30.35S
ROCK SPRINGS,  SUNNY     70  32  24 VRB3      30.33F
KEMMERER, WY     N/A     72  32  23 CALM      30.36S

$$




USA.gov is the U.S. government's official web portal to all federal, state and local government web resources and services.